Zurück zum Katalog

FENGYUN 1C DEB

AktivPO
NORAD 31746·DEBRIS·🇨🇳 China

Gestartet May 10, 1999 von Taiyuan Satellite Launch Center

Loading…

Nächste Überflüge (nächste 24 Stunden)

TLE

AktuellSource: Space-Track

Epoche: Sep 13, 2026, 21:09 UTC

1 31746U 99025CEV 26256.88147411  .00023872  00000-0  23478-2 0  9999
2 31746  98.6022  45.9394 0016678  42.6390 317.6117 14.92007477  9406

Verfolge FENGYUN 1C DEB in Echtzeit mit AllMySat

Download on the App Store